Location: Chavannes
(47.1090°N, 0.2226°W)
Time: 13:31:17
(UTC+00:00)

Cosmos 1605 Rocket - Pass Details

Date: 16 October 2021
Orbit: 945 x 1006 km, 82.9° (Epoch: 02 December)

Event Time Altitude Azimuth Distance (km) Brightness Sun altitude
Rises 18:49:09 0° 166° (SSE) 3,642 6.8 -17.4°
Reaches altitude 10° 18:51:43 10° 160° (SSE) 2,708 6.1 -17.8°
Maximum altitude 18:57:34 45° 89° (E) 1,310 4.2 -18.8°
Drops below altitude 10° 19:03:32 10° 20° (NNE) 2,765 6.3 -19.8°
Sets 19:06:11 0° 14° (NNE) 3,726 7.0 -20.3°
